Change the Weather History Date:

Wednesday, January 29, 2014

  Actual Average (KICT) Record (KICT)
Temperature  
Mean Temperature 30 °F 33 °F  
Max Temperature 48 °F 44 °F 70 °F (1971)
Min Temperature 12 °F 22 °F -3 °F (1966)
Degree Days  
Heating Degree Days 35 32  
Month to date heating degree days 950  
Since 1 July heating degree days 2793  
Cooling Degree Days 0 0  
Month to date cooling degree days 0  
Year to date cooling degree days 0  
Moisture  
Dew Point 8 °F    
Average Humidity 46    
Maximum Humidity 88    
Minimum Humidity 17    
Precipitation  
Precipitation 0.00 in 0.03 in 1.51 in (1982)
Month to date precipitation 0.76  
Year to date precipitation 0.76  
Snow  
Snow 0.00 in 0.10 in 2.80 in (1979)
Month to date snowfall 3.3  
Since 1 July snowfall 8.9  
Snow Depth -    
Sea Level Pressure  
Sea Level Pressure 30.13 in    
Wind  
Wind Speed 13 mph (SSW)    
Max Wind Speed 29 mph    
Max Gust Speed 39 mph    
Visibility 10 miles    
Events      
T = Trace of Precipitation, MM = Missing Value Source: NWS Daily Summary

Daily Weather History Graph

Daily Weather History Graph

Search for Another Location

Airport or City:

Trip Planner

Search our weather history database for the weather conditions in past years. The results will help you decide how hot, cold, wet, or windy it might be!

Date:

Astronomy

Jan. 29, 2014 Rise Set
Actual Time 7:35 AM CST 5:49 PM CST
Civil Twilight 7:07 AM CST 6:17 PM CST
Nautical Twilight 6:35 AM CST 6:48 PM CST
Astronomical Twilight 6:04 AM CST 7:19 PM CST
Moon 6:12 AM CST (1/29) 4:50 PM CST (1/29)
Length of Visible Light 11h 09m
Length of Day
10h 14m
Waning Crescent, 2% of the Moon is Illuminated
Jan 29
Waning Crescent
Jan 30
New
Feb 6
First Quarter
Feb 14
Full
Feb 22
Last Quarter

Hourly Weather History & Observations

Time (CST) Temp. Windchill Dew Point Humidity Pressure Visibility Wind Dir Wind Speed Gust Speed Precip Events Conditions
12:54 AM 15.1 °F 5.2 °F 3.9 °F 61% 30.34 in 10.0 mi SW 6.9 mph - N/A   Clear
1:54 AM 17.1 °F 6.6 °F 5.0 °F 59% 30.32 in 10.0 mi SSW 8.1 mph - N/A   Clear
2:54 AM 15.1 °F 5.2 °F 5.0 °F 64% 30.30 in 10.0 mi SSW 6.9 mph - N/A   Clear
3:54 AM 16.0 °F 4.4 °F 8.1 °F 71% 30.29 in 10.0 mi SSW 9.2 mph - N/A   Clear
4:54 AM 18.0 °F 7.7 °F 12.0 °F 78% 30.27 in 10.0 mi SSW 8.1 mph - N/A   Clear
5:54 AM 12.9 °F 3.8 °F 10.0 °F 88% 30.27 in 10.0 mi South 5.8 mph - N/A   Clear
6:54 AM 12.0 °F 2.7 °F 9.0 °F 88% 30.28 in 10.0 mi South 5.8 mph - N/A   Clear
7:54 AM 12.0 °F 2.7 °F 9.0 °F 88% 30.27 in 10.0 mi South 5.8 mph - N/A   Clear
8:54 AM 19.9 °F 11.1 °F 12.9 °F 74% 30.26 in 10.0 mi South 6.9 mph - N/A   Clear
9:54 AM 28.0 °F 17.0 °F 14.0 °F 56% 30.23 in 10.0 mi South 13.8 mph - N/A   Clear
10:54 AM 30.0 °F 19.1 °F 12.9 °F 49% 30.23 in 10.0 mi South 15.0 mph - N/A   Clear
11:54 AM 37.0 °F 28.1 °F 12.0 °F 36% 30.19 in 10.0 mi South 15.0 mph - N/A   Clear
12:54 PM 41.0 °F 32.5 °F 10.9 °F 29% 30.14 in 10.0 mi South 17.3 mph 25.3 mph N/A   Clear
1:54 PM 45.0 °F 35.8 °F 9.0 °F 23% 30.08 in 10.0 mi SSW 26.5 mph 34.5 mph N/A   Clear
2:54 PM 48.0 °F - 8.1 °F 20% 30.05 in 10.0 mi SSW 24.2 mph 38.0 mph N/A   Clear
3:54 PM 48.0 °F - 5.0 °F 17% 30.01 in 10.0 mi SSW 24.2 mph 33.4 mph N/A   Clear
4:54 PM 46.0 °F 36.9 °F 3.9 °F 18% 29.99 in 10.0 mi SSW 28.8 mph 39.1 mph N/A   Clear
5:54 PM 44.1 °F 36.2 °F 3.9 °F 19% 30.00 in 10.0 mi South 18.4 mph 27.6 mph N/A   Clear
6:54 PM 41.0 °F 31.1 °F 5.0 °F 23% 29.99 in 10.0 mi South 23.0 mph 31.1 mph N/A   Clear
7:54 PM 39.9 °F 30.0 °F 6.1 °F 25% 29.97 in 10.0 mi South 21.9 mph 32.2 mph N/A   Clear
8:54 PM 39.0 °F 28.5 °F 6.1 °F 26% 29.95 in 10.0 mi South 23.0 mph 35.7 mph N/A   Clear
9:54 PM 37.9 °F 26.8 °F 7.0 °F 28% 29.93 in 10.0 mi South 24.2 mph 35.7 mph N/A   Clear
10:54 PM 36.0 °F 23.2 °F 9.0 °F 33% 29.91 in 10.0 mi South 28.8 mph 36.8 mph N/A   Clear
11:54 PM 34.0 °F 21.5 °F 9.0 °F 35% 29.86 in 10.0 mi South 24.2 mph 32.2 mph N/A   Clear